UAL1206 KSEA-KEWR

Flight info

Callsign UAL1206
Flight time N/A
Altitude 39000
Route MONTN2 SEA ZADON ZELAK ZIRAN ZAXBY BLOWS KU12U KP06C GEP ODI KG78K KG72M EVOTE NELLS KEEHO J584 SLT FQM3
Aircraft B772/H-SDE2E3FGHIJ5LORVWXY/LB1D1

Departure

Time N/A
Airport Seattle–Tacoma International Airport (KSEA)

Arrival

Time 2026-04-23 13:14
Airport Newark Liberty International Airport (KEWR)
Time Latitude Longitude Altitude Speed Heading
2026-04-23 11:41 42.11084 -88.21524 33011 ft 509 kts 125°
2026-04-23 11:42 42.07039 -88.13650 33008 ft 510 kts 125°
2026-04-23 11:42 42.03069 -88.05776 33011 ft 510 kts 120°
2026-04-23 11:43 42.00436 -87.96950 33010 ft 508 kts 102°
2026-04-23 11:43 41.99768 -87.87582 33017 ft 506 kts 88°
2026-04-23 11:44 41.99765 -87.78181 33030 ft 507 kts 88°
2026-04-23 11:44 41.99731 -87.68766 33021 ft 506 kts 88°
2026-04-23 11:45 41.99670 -87.59210 33013 ft 505 kts 88°
2026-04-23 11:45 41.99591 -87.49731 33015 ft 505 kts 88°
2026-04-23 11:46 41.99498 -87.40115 32979 ft 505 kts 88°
2026-04-23 11:46 41.99391 -87.30369 32979 ft 504 kts 89°
2026-04-23 11:47 41.99274 -87.20535 32981 ft 503 kts 89°
2026-04-23 11:47 41.99148 -87.10781 32991 ft 504 kts 89°
2026-04-23 11:48 41.99014 -87.01009 32981 ft 504 kts 89°
2026-04-23 11:48 41.98873 -86.91389 32981 ft 503 kts 89°
2026-04-23 11:49 41.98729 -86.82136 32988 ft 502 kts 89°
2026-04-23 11:49 41.98572 -86.72442 32987 ft 503 kts 89°
2026-04-23 11:50 41.98411 -86.63062 32991 ft 503 kts 89°
2026-04-23 11:50 41.98243 -86.53701 33001 ft 503 kts 89°
2026-04-23 11:51 41.98067 -86.44366 33013 ft 502 kts 89°
2026-04-23 11:51 41.97884 -86.35003 32999 ft 504 kts 89°
2026-04-23 11:52 41.97692 -86.25569 33002 ft 504 kts 89°
2026-04-23 11:52 41.97493 -86.16180 33001 ft 503 kts 89°
2026-04-23 11:53 41.97286 -86.06773 33015 ft 504 kts 89°
2026-04-23 11:53 41.97071 -85.97393 33011 ft 504 kts 89°
2026-04-23 11:54 41.96848 -85.87984 33032 ft 504 kts 89°
2026-04-23 11:54 41.96619 -85.78614 33033 ft 503 kts 89°
2026-04-23 11:55 41.96382 -85.69244 33032 ft 503 kts 89°
2026-04-23 11:55 41.96137 -85.59867 33030 ft 503 kts 89°
2026-04-23 11:56 41.95883 -85.50427 33043 ft 504 kts 89°
2026-04-23 11:56 41.95620 -85.40962 33038 ft 502 kts 89°
2026-04-23 11:57 41.95351 -85.31551 33029 ft 504 kts 89°
2026-04-23 11:57 41.95074 -85.22112 33031 ft 503 kts 89°
2026-04-23 11:58 41.95032 -85.12703 33049 ft 503 kts 87°
2026-04-23 11:58 41.95025 -85.03359 33046 ft 502 kts 87°
2026-04-23 11:59 41.95000 -84.93972 33040 ft 501 kts 87°
2026-04-23 11:59 41.94962 -84.84595 33042 ft 502 kts 86°
2026-04-23 12:00 41.94914 -84.75240 33053 ft 502 kts 87°
2026-04-23 12:00 41.94857 -84.65929 33057 ft 501 kts 86°
2026-04-23 12:01 41.94791 -84.56500 33052 ft 501 kts 86°
2026-04-23 12:01 41.94718 -84.47201 33072 ft 502 kts 86°
2026-04-23 12:02 41.94636 -84.37824 33056 ft 501 kts 86°
2026-04-23 12:02 41.94547 -84.28501 33043 ft 501 kts 87°
2026-04-23 12:03 41.94451 -84.19186 33059 ft 502 kts 87°
2026-04-23 12:03 41.94347 -84.09852 33070 ft 502 kts 87°
2026-04-23 12:04 41.94235 -84.00517 33073 ft 501 kts 87°
2026-04-23 12:04 41.94114 -83.91110 33073 ft 501 kts 87°
2026-04-23 12:05 41.93987 -83.81774 33042 ft 501 kts 87°
2026-04-23 12:05 41.93853 -83.72430 33035 ft 502 kts 87°
2026-04-23 12:06 41.93710 -83.63065 33062 ft 502 kts 87°
2026-04-23 12:06 41.93478 -83.48753 33062 ft 501 kts 86°
2026-04-23 12:07 41.93434 -83.39117 33068 ft 500 kts 86°
2026-04-23 12:07 41.93401 -83.29781 33061 ft 502 kts 86°
2026-04-23 12:08 41.93356 -83.20406 33065 ft 501 kts 86°
2026-04-23 12:08 41.93301 -83.10986 33066 ft 502 kts 86°
2026-04-23 12:09 41.93237 -83.01507 33040 ft 501 kts 86°
2026-04-23 12:09 41.93164 -82.92006 33026 ft 502 kts 86°
2026-04-23 12:10 41.93083 -82.82564 33032 ft 502 kts 86°
2026-04-23 12:10 41.92994 -82.73019 33037 ft 503 kts 86°
2026-04-23 12:11 41.92897 -82.63551 33039 ft 503 kts 86°
2026-04-23 12:11 41.92792 -82.54100 33035 ft 502 kts 86°
2026-04-23 12:12 41.92680 -82.44648 33038 ft 503 kts 86°
2026-04-23 12:12 41.92560 -82.35236 33032 ft 501 kts 86°
2026-04-23 12:13 41.92432 -82.25704 33044 ft 506 kts 86°
2026-04-23 12:13 41.92296 -82.16253 33047 ft 505 kts 86°
2026-04-23 12:14 41.92151 -82.06712 33032 ft 502 kts 86°
2026-04-23 12:14 41.91997 -81.97058 33052 ft 504 kts 86°
2026-04-23 12:15 41.91833 -81.87308 33047 ft 506 kts 86°
2026-04-23 12:15 41.91284 -81.77647 33022 ft 508 kts 92°
2026-04-23 12:16 41.90432 -81.68002 33039 ft 510 kts 92°
2026-04-23 12:16 41.89587 -81.58553 33033 ft 508 kts 91°
2026-04-23 12:17 41.89164 -81.53867 32869 ft 497 kts 92°
2026-04-23 12:17 41.88752 -81.49318 32237 ft 493 kts 92°
2026-04-23 12:17 41.88318 -81.44530 31475 ft 491 kts 91°
2026-04-23 12:17 41.87907 -81.40039 31323 ft 482 kts 91°
2026-04-23 12:18 41.87486 -81.35410 31208 ft 493 kts 91°
2026-04-23 12:18 41.87064 -81.30809 31043 ft 494 kts 92°
2026-04-23 12:18 41.86639 -81.26208 30869 ft 490 kts 92°
2026-04-23 12:18 41.86216 -81.21657 30696 ft 488 kts 92°
2026-04-23 12:19 41.85790 -81.17082 30522 ft 487 kts 92°
2026-04-23 12:19 41.85368 -81.12581 30346 ft 486 kts 92°
2026-04-23 12:19 41.84943 -81.08051 30171 ft 484 kts 92°
2026-04-23 12:19 41.84517 -81.03543 30004 ft 482 kts 92°
2026-04-23 12:20 41.84090 -80.99036 29831 ft 483 kts 92°
2026-04-23 12:20 41.83670 -80.94619 29673 ft 480 kts 92°
2026-04-23 12:20 41.83246 -80.90188 29521 ft 479 kts 92°
2026-04-23 12:20 41.82812 -80.85664 29349 ft 479 kts 92°
2026-04-23 12:21 41.82378 -80.81160 29185 ft 478 kts 92°
2026-04-23 12:21 41.81953 -80.76764 29042 ft 476 kts 92°
2026-04-23 12:21 41.81520 -80.72314 28867 ft 474 kts 92°
2026-04-23 12:21 41.81087 -80.67874 28704 ft 474 kts 92°
2026-04-23 12:22 41.80657 -80.63480 28529 ft 473 kts 92°
2026-04-23 12:22 41.80229 -80.59138 28379 ft 472 kts 92°
2026-04-23 12:22 41.79800 -80.54791 28208 ft 471 kts 92°
2026-04-23 12:22 41.79365 -80.50400 28036 ft 469 kts 92°
2026-04-23 12:23 41.78937 -80.46107 27886 ft 468 kts 92°
2026-04-23 12:23 41.78503 -80.41768 27686 ft 468 kts 92°
2026-04-23 12:23 41.78075 -80.37495 27513 ft 465 kts 92°
2026-04-23 12:23 41.77640 -80.33180 27360 ft 466 kts 93°
2026-04-23 12:24 41.77206 -80.28887 27199 ft 465 kts 93°
2026-04-23 12:24 41.76773 -80.24622 27042 ft 462 kts 93°
2026-04-23 12:24 41.76337 -80.20345 26893 ft 464 kts 93°
2026-04-23 12:24 41.75903 -80.16094 26715 ft 463 kts 93°
2026-04-23 12:25 41.75455 -80.11733 26538 ft 460 kts 93°
2026-04-23 12:25 41.75017 -80.07488 26385 ft 459 kts 93°
2026-04-23 12:25 41.74571 -80.03167 26214 ft 458 kts 93°
2026-04-23 12:25 41.74134 -79.98966 26049 ft 457 kts 93°
2026-04-23 12:26 41.73689 -79.94692 25884 ft 458 kts 93°
2026-04-23 12:26 41.73231 -79.90315 25708 ft 456 kts 93°
2026-04-23 12:26 41.72784 -79.86051 25529 ft 454 kts 93°
2026-04-23 12:26 41.72336 -79.81804 25379 ft 453 kts 93°
2026-04-23 12:27 41.71891 -79.77593 25221 ft 452 kts 93°
2026-04-23 12:27 41.71449 -79.73429 25066 ft 451 kts 93°
2026-04-23 12:27 41.70993 -79.69150 24900 ft 450 kts 93°
2026-04-23 12:27 41.70548 -79.64983 24749 ft 450 kts 93°
2026-04-23 12:28 41.70105 -79.60851 24587 ft 449 kts 93°
2026-04-23 12:28 41.69658 -79.56702 24420 ft 446 kts 93°
2026-04-23 12:28 41.69217 -79.52618 24270 ft 445 kts 94°
2026-04-23 12:28 41.68756 -79.48361 24131 ft 448 kts 93°
2026-04-23 12:29 41.68303 -79.44190 23966 ft 448 kts 93°
2026-04-23 12:29 41.67854 -79.40080 23805 ft 445 kts 93°
2026-04-23 12:29 41.67406 -79.35991 23638 ft 444 kts 93°
2026-04-23 12:29 41.66959 -79.31925 23479 ft 443 kts 94°
2026-04-23 12:30 41.66510 -79.27850 23329 ft 442 kts 94°
2026-04-23 12:30 41.66065 -79.23821 23166 ft 442 kts 94°
2026-04-23 12:30 41.65598 -79.19621 23020 ft 440 kts 94°
2026-04-23 12:30 41.65145 -79.15547 22864 ft 441 kts 94°
2026-04-23 12:31 41.64681 -79.11398 22688 ft 437 kts 94°
2026-04-23 12:31 41.64220 -79.07302 22540 ft 434 kts 94°
2026-04-23 12:31 41.63769 -79.03290 22400 ft 435 kts 94°
2026-04-23 12:31 41.63321 -78.99317 22252 ft 436 kts 94°
2026-04-23 12:32 41.62868 -78.95324 22089 ft 434 kts 94°
2026-04-23 12:32 41.62410 -78.91295 21936 ft 433 kts 94°
2026-04-23 12:32 41.61948 -78.87238 21783 ft 433 kts 94°
2026-04-23 12:32 41.61489 -78.83227 21622 ft 431 kts 94°
2026-04-23 12:33 41.61032 -78.79247 21478 ft 429 kts 94°
2026-04-23 12:33 41.60577 -78.75286 21353 ft 430 kts 94°
2026-04-23 12:33 41.60112 -78.71263 21178 ft 428 kts 94°
2026-04-23 12:33 41.59663 -78.67387 21014 ft 426 kts 94°
2026-04-23 12:34 41.59194 -78.63345 20872 ft 426 kts 94°
2026-04-23 12:34 41.58735 -78.59409 20729 ft 425 kts 94°
2026-04-23 12:34 41.58262 -78.55357 20575 ft 426 kts 94°
2026-04-23 12:34 41.57800 -78.51421 20420 ft 421 kts 94°
2026-04-23 12:35 41.57330 -78.47420 20279 ft 425 kts 94°
2026-04-23 12:35 41.56869 -78.43511 20116 ft 424 kts 94°
2026-04-23 12:35 41.56408 -78.39622 19968 ft 420 kts 94°
2026-04-23 12:35 41.55948 -78.35751 19823 ft 421 kts 94°
2026-04-23 12:36 41.55488 -78.31883 19673 ft 421 kts 94°
2026-04-23 12:36 41.55011 -78.27886 19513 ft 420 kts 95°
2026-04-23 12:36 41.54532 -78.23891 19372 ft 419 kts 94°
2026-04-23 12:36 41.54062 -78.19970 19206 ft 419 kts 94°
2026-04-23 12:37 41.53589 -78.16052 19035 ft 417 kts 94°
2026-04-23 12:37 41.53115 -78.12135 18890 ft 414 kts 94°
2026-04-23 12:37 41.52644 -78.08243 18758 ft 415 kts 94°
2026-04-23 12:37 41.52172 -78.04361 18600 ft 414 kts 94°
2026-04-23 12:38 41.51557 -77.99316 18401 ft 411 kts 94°
2026-04-23 12:38 41.51249 -77.96801 18321 ft 411 kts 94°
2026-04-23 12:38 41.50743 -77.93036 18182 ft 413 kts 96°
2026-04-23 12:38 41.50198 -77.89211 18044 ft 411 kts 96°
2026-04-23 12:39 41.49650 -77.85369 17864 ft 411 kts 96°
2026-04-23 12:39 41.49115 -77.81622 17725 ft 407 kts 96°
2026-04-23 12:39 41.48577 -77.77840 17628 ft 409 kts 96°
2026-04-23 12:39 41.48029 -77.73992 17467 ft 411 kts 96°
2026-04-23 12:40 41.47487 -77.70200 17292 ft 406 kts 96°
2026-04-23 12:40 41.46949 -77.66441 17173 ft 407 kts 96°
2026-04-23 12:40 41.46405 -77.62652 17001 ft 406 kts 96°
2026-04-23 12:40 41.45864 -77.58889 16846 ft 404 kts 96°
2026-04-23 12:41 41.45321 -77.55116 16710 ft 404 kts 96°
2026-04-23 12:41 41.44787 -77.51410 16572 ft 403 kts 96°
2026-04-23 12:41 41.44246 -77.47675 16440 ft 402 kts 96°
2026-04-23 12:41 41.43710 -77.43973 16320 ft 402 kts 96°
2026-04-23 12:42 41.43173 -77.40282 16158 ft 400 kts 96°
2026-04-23 12:42 41.42644 -77.36645 16029 ft 401 kts 96°
2026-04-23 12:42 41.42108 -77.32974 15879 ft 401 kts 97°
2026-04-23 12:42 41.41570 -77.29295 15734 ft 399 kts 97°
2026-04-23 12:43 41.41039 -77.25679 15577 ft 396 kts 97°
2026-04-23 12:43 41.40506 -77.22053 15446 ft 397 kts 97°
2026-04-23 12:43 41.39974 -77.18442 15308 ft 395 kts 97°
2026-04-23 12:43 41.39437 -77.14804 15168 ft 396 kts 97°
2026-04-23 12:44 41.38902 -77.11184 15044 ft 395 kts 97°
2026-04-23 12:44 41.38367 -77.07579 14881 ft 393 kts 97°
2026-04-23 12:44 41.37837 -77.04018 14776 ft 393 kts 97°
2026-04-23 12:44 41.37295 -77.00382 14638 ft 393 kts 97°
2026-04-23 12:45 41.36751 -76.96736 14501 ft 392 kts 97°
2026-04-23 12:45 41.36222 -76.93205 14363 ft 391 kts 97°
2026-04-23 12:45 41.35693 -76.89673 14228 ft 390 kts 97°
2026-04-23 12:45 41.35160 -76.86133 14086 ft 391 kts 97°
2026-04-23 12:46 41.34627 -76.82594 13953 ft 388 kts 97°
2026-04-23 12:46 41.34080 -76.78977 13802 ft 388 kts 98°
2026-04-23 12:46 41.33305 -76.75444 13674 ft 389 kts 106°
2026-04-23 12:46 41.32394 -76.71993 13539 ft 390 kts 106°
2026-04-23 12:47 41.31461 -76.68491 13373 ft 388 kts 106°
2026-04-23 12:47 41.30553 -76.65093 13222 ft 387 kts 107°
2026-04-23 12:47 41.29649 -76.61715 13084 ft 386 kts 106°
2026-04-23 12:47 41.28755 -76.58376 12946 ft 387 kts 107°
2026-04-23 12:48 41.27844 -76.54977 12818 ft 386 kts 107°
2026-04-23 12:48 41.26951 -76.51652 12681 ft 384 kts 106°
2026-04-23 12:48 41.26052 -76.48310 12554 ft 384 kts 107°
2026-04-23 12:48 41.25143 -76.44934 12415 ft 383 kts 106°
2026-04-23 12:49 41.24248 -76.41613 12299 ft 383 kts 107°
2026-04-23 12:49 41.23351 -76.38290 12159 ft 382 kts 107°
2026-04-23 12:49 41.22451 -76.34961 12021 ft 380 kts 107°
2026-04-23 12:49 41.21558 -76.31660 11867 ft 381 kts 107°
2026-04-23 12:50 41.20668 -76.28378 11748 ft 380 kts 107°
2026-04-23 12:50 41.19760 -76.25031 11618 ft 380 kts 107°
2026-04-23 12:50 41.18864 -76.21738 11481 ft 378 kts 107°
2026-04-23 12:50 41.17956 -76.18399 11358 ft 377 kts 107°
2026-04-23 12:51 41.17040 -76.15037 11200 ft 376 kts 107°
2026-04-23 12:51 41.16133 -76.11715 11132 ft 376 kts 107°
2026-04-23 12:51 41.15245 -76.08467 10997 ft 375 kts 107°
2026-04-23 12:51 41.14370 -76.05267 10841 ft 374 kts 108°
2026-04-23 12:52 41.13464 -76.01962 10727 ft 373 kts 107°
2026-04-23 12:52 41.12584 -75.98755 10615 ft 373 kts 108°
2026-04-23 12:52 41.11697 -75.95528 10477 ft 368 kts 107°
2026-04-23 12:52 41.10840 -75.92416 10340 ft 356 kts 108°
2026-04-23 12:53 41.10001 -75.89374 10196 ft 345 kts 107°
2026-04-23 12:53 41.09184 -75.86409 9968 ft 338 kts 108°
2026-04-23 12:53 41.08382 -75.83504 9788 ft 329 kts 107°
2026-04-23 12:53 41.07611 -75.80717 9567 ft 320 kts 107°
2026-04-23 12:54 41.06850 -75.77968 9507 ft 310 kts 107°
2026-04-23 12:54 41.06109 -75.75291 9429 ft 304 kts 107°
2026-04-23 12:54 41.05382 -75.72668 9336 ft 305 kts 107°
2026-04-23 12:54 41.04648 -75.70019 9268 ft 305 kts 107°
2026-04-23 12:55 41.03910 -75.67364 9268 ft 306 kts 107°
2026-04-23 12:55 41.03170 -75.64704 9286 ft 306 kts 107°
2026-04-23 12:55 41.02434 -75.62061 9357 ft 305 kts 107°
2026-04-23 12:55 41.01697 -75.59417 9302 ft 306 kts 107°
2026-04-23 12:56 41.00959 -75.56771 9364 ft 306 kts 107°
2026-04-23 12:56 41.00217 -75.54115 9323 ft 305 kts 107°
2026-04-23 12:56 40.99484 -75.51492 9369 ft 306 kts 107°
2026-04-23 12:56 40.98741 -75.48833 9432 ft 306 kts 107°
2026-04-23 12:57 40.97993 -75.46159 9472 ft 307 kts 107°
2026-04-23 12:57 40.97257 -75.43533 9420 ft 305 kts 107°
2026-04-23 12:57 40.96514 -75.40889 9393 ft 306 kts 107°
2026-04-23 12:57 40.95777 -75.38261 9431 ft 306 kts 107°
2026-04-23 12:58 40.95029 -75.35602 9471 ft 307 kts 107°
2026-04-23 12:58 40.94300 -75.33011 9453 ft 307 kts 108°
2026-04-23 12:58 40.93626 -75.30615 9494 ft 307 kts 108°
2026-04-23 12:58 40.92865 -75.27918 9510 ft 308 kts 108°
2026-04-23 12:59 40.92106 -75.25229 9483 ft 307 kts 108°
2026-04-23 12:59 40.91354 -75.22568 9508 ft 307 kts 108°
2026-04-23 12:59 40.90614 -75.19951 9512 ft 308 kts 108°
2026-04-23 12:59 40.89852 -75.17261 9539 ft 308 kts 107°
2026-04-23 13:00 40.89104 -75.14620 9550 ft 308 kts 108°
2026-04-23 13:00 40.88324 -75.11874 9538 ft 306 kts 108°
2026-04-23 13:00 40.87548 -75.09131 9504 ft 308 kts 108°
2026-04-23 13:00 40.86776 -75.06393 9498 ft 308 kts 107°
2026-04-23 13:01 40.86007 -75.03666 9482 ft 307 kts 107°
2026-04-23 13:01 40.85249 -75.00983 9510 ft 308 kts 107°
2026-04-23 13:01 40.84488 -74.98290 9506 ft 307 kts 107°
2026-04-23 13:01 40.83731 -74.95620 9492 ft 309 kts 107°
2026-04-23 13:02 40.82959 -74.92899 9484 ft 307 kts 107°
2026-04-23 13:02 40.82047 -74.90203 9454 ft 309 kts 121°
2026-04-23 13:02 40.80796 -74.87835 9473 ft 311 kts 124°
2026-04-23 13:02 40.79543 -74.85445 9516 ft 310 kts 122°
2026-04-23 13:03 40.78332 -74.83009 9333 ft 311 kts 121°
2026-04-23 13:03 40.77147 -74.80565 8994 ft 311 kts 120°
2026-04-23 13:03 40.75972 -74.78123 8739 ft 310 kts 120°
2026-04-23 13:03 40.74806 -74.75696 8365 ft 310 kts 120°
2026-04-23 13:04 40.73667 -74.73328 7975 ft 301 kts 120°
2026-04-23 13:04 40.72558 -74.71022 7690 ft 291 kts 120°
2026-04-23 13:04 40.71484 -74.68792 7389 ft 283 kts 120°
2026-04-23 13:04 40.70423 -74.66589 7155 ft 292 kts 120°
2026-04-23 13:05 40.69319 -74.64297 6783 ft 296 kts 120°
2026-04-23 13:05 40.68216 -74.62009 6394 ft 298 kts 120°
2026-04-23 13:05 40.67110 -74.59721 6008 ft 295 kts 120°
2026-04-23 13:05 40.66019 -74.57465 5731 ft 283 kts 120°
2026-04-23 13:06 40.63900 -74.53084 5158 ft 278 kts 120°
2026-04-23 13:06 40.62877 -74.50970 4863 ft 272 kts 121°
2026-04-23 13:06 40.61898 -74.48951 4573 ft 269 kts 120°
2026-04-23 13:07 40.60901 -74.46895 4293 ft 268 kts 121°
2026-04-23 13:07 40.59903 -74.44838 4008 ft 265 kts 121°
2026-04-23 13:07 40.58919 -74.42812 3744 ft 258 kts 121°
2026-04-23 13:07 40.57996 -74.40913 3689 ft 235 kts 121°
2026-04-23 13:08 40.57152 -74.39178 3652 ft 211 kts 121°
2026-04-23 13:08 40.56386 -74.37602 3602 ft 199 kts 120°
2026-04-23 13:08 40.55647 -74.36081 3540 ft 195 kts 120°
2026-04-23 13:08 40.54920 -74.34588 3517 ft 194 kts 121°
2026-04-23 13:09 40.54199 -74.33107 3513 ft 193 kts 121°
2026-04-23 13:09 40.53471 -74.31612 3502 ft 195 kts 121°
2026-04-23 13:09 40.52762 -74.30094 3455 ft 193 kts 112°
2026-04-23 13:09 40.52533 -74.28400 3401 ft 187 kts 76°
2026-04-23 13:10 40.53094 -74.26908 3200 ft 182 kts 43°
2026-04-23 13:10 40.54098 -74.25970 2970 ft 173 kts 23°
2026-04-23 13:10 40.55166 -74.25330 2758 ft 169 kts 20°
2026-04-23 13:10 40.56237 -74.24684 2549 ft 169 kts 21°
2026-04-23 13:11 40.57307 -74.24013 2335 ft 169 kts 21°
2026-04-23 13:11 40.58324 -74.23373 2104 ft 156 kts 21°
2026-04-23 13:11 40.59247 -74.22795 1930 ft 142 kts 21°
2026-04-23 13:11 40.60118 -74.22247 1763 ft 135 kts 21°
2026-04-23 13:12 40.60969 -74.21711 1596 ft 135 kts 22°
2026-04-23 13:12 40.61808 -74.21180 1412 ft 134 kts 22°
2026-04-23 13:12 40.62649 -74.20650 1233 ft 134 kts 22°
2026-04-23 13:12 40.63483 -74.20121 1051 ft 134 kts 23°
2026-04-23 13:13 40.64323 -74.19591 869 ft 134 kts 23°
2026-04-23 13:13 40.65135 -74.19077 693 ft 134 kts 24°
2026-04-23 13:13 40.65938 -74.18570 518 ft 134 kts 24°
2026-04-23 13:13 40.66763 -74.18048 339 ft 134 kts 25°
2026-04-23 13:14 40.67598 -74.17519 160 ft 134 kts 25°
2026-04-23 13:14 40.68417 -74.17007 23 ft 132 kts 26°
2026-04-23 13:14 40.69067 -74.16595 22 ft 81 kts 26°
2026-04-23 13:14 40.69408 -74.16457 22 ft 39 kts 357°
2026-04-23 13:15 40.69437 -74.16461 22 ft 0 kts 351°
2026-04-23 13:17 40.69441 -74.16462 22 ft 1 kts 351°
2026-04-23 13:17 40.69474 -74.16470 22 ft 8 kts 350°
2026-04-23 13:17 40.69555 -74.16489 22 ft 14 kts 337°
2026-04-23 13:17 40.69633 -74.16597 22 ft 18 kts 301°
2026-04-23 13:18 40.69673 -74.16761 22 ft 20 kts 265°
2026-04-23 13:18 40.69598 -74.16911 22 ft 21 kts 211°
2026-04-23 13:18 40.69463 -74.17005 22 ft 23 kts 207°
2026-04-23 13:18 40.69310 -74.17102 22 ft 25 kts 205°
2026-04-23 13:19 40.69146 -74.17203 22 ft 27 kts 205°
2026-04-23 13:19 40.68976 -74.17312 22 ft 28 kts 207°
2026-04-23 13:19 40.68796 -74.17432 22 ft 30 kts 206°
2026-04-23 13:19 40.68626 -74.17550 22 ft 21 kts 240°
2026-04-23 13:20 40.68652 -74.17727 22 ft 20 kts 266°
2026-04-23 13:20 40.68545 -74.17841 22 ft 21 kts 217°
2026-04-23 13:20 40.68513 -74.18014 22 ft 21 kts 295°
2026-04-23 13:20 40.68569 -74.18210 22 ft 23 kts 281°
2026-04-23 13:21 40.68584 -74.18432 22 ft 25 kts 280°
2026-04-23 13:21 40.68588 -74.18638 22 ft 15 kts 263°
2026-04-23 13:21 40.68586 -74.18667 22 ft 0 kts 264°